Location: Pittsburgh
(40.4410°N, 79.9960°W)
Time: 19:29:05
(UTC-04:00)

BlueWalker 3 - Pass Details

Date: 16 March 2026
Orbit: 449 x 457 km, 53.2° (Epoch: 12 April)

Event Time Altitude Azimuth Distance (km) Brightness Sun altitude
Exits shadow 06:54:43 - 300° (WNW) 1,932 4.4 -7.5°
Reaches altitude 10° 06:55:35 10° 296° (WNW) 1,598 4.0 -7.4°
Maximum altitude 06:58:57 39° 226° (SW) 699 2.3 -6.7°
Drops below altitude 10° 07:02:18 10° 156° (SSE) 1,585 4.8 -6.1°
Sets 07:04:30 0° 149° (SSE) 2,453 5.9 -5.7°
